| time (UTC) | temp F | wind direction | speed MPH | gust MPH | rain 1hr in | rain 24hr in | rain mn in | humidity % | barometer mb |
| 20260509231003 | 74 | 270 | 4.0 | 10.0 | 0.00 | 0.00 | 0.00 | 31 | 1006.7 |
| 20260509230011 | 75 | 56 | 3.0 | 10.0 | 0.00 | 0.00 | 0.00 | 33 | 1006.4 |
| 20260509224008 | 76 | 308 | 3.0 | 7.0 | 0.00 | 0.00 | 0.00 | 28 | 1006.1 |
| 20260509223506 | 76 | 283 | 2.0 | 7.0 | 0.00 | 0.00 | 0.00 | 28 | 1006.1 |
| 20260509223018 | 76 | 323 | 3.0 | 13.0 | 0.00 | 0.00 | 0.00 | 29 | 1006.0 |
| 20260509222507 | 76 | 297 | 2.0 | 17.0 | 0.00 | 0.00 | 0.00 | 31 | 1006.1 |
| 20260509222009 | 76 | 296 | 9.0 | 19.0 | 0.00 | 0.00 | 0.00 | 30 | 1006.1 |
| 20260509221523 | 76 | 284 | 10.0 | 19.0 | 0.00 | 0.00 | 0.00 | 27 | 1006.2 |
| 20260509220506 | 77 | 279 | 12.0 | 21.0 | 0.00 | 0.00 | 0.00 | 27 | 1006.1 |
| 20260509220009 | 77 | 273 | 16.0 | 20.0 | 0.00 | 0.00 | 0.00 | 28 | 1006.0 |
| 20260509215504 | 77 | 281 | 13.0 | 21.0 | 0.00 | 0.00 | 0.00 | 28 | 1006.1 |
| 20260509215006 | 77 | 254 | 15.0 | 23.0 | 0.00 | 0.00 | 0.00 | 29 | 1006.1 |
| 20260509214005 | 76 | 266 | 9.0 | 21.0 | 0.00 | 0.00 | 0.00 | 35 | 1006.0 |
| 20260509213504 | 75 | 292 | 11.0 | 19.0 | 0.00 | 0.00 | 0.00 | 40 | 1006.1 |
| 20260509212507 | 75 | 289 | 11.0 | 18.0 | 0.00 | 0.00 | 0.00 | 40 | 1006.2 |
| 20260509211527 | 76 | 262 | 13.0 | 21.0 | 0.00 | 0.00 | 0.00 | 38 | 1006.2 |
| 20260509211008 | 76 | 271 | 16.0 | 21.0 | 0.00 | 0.00 | 0.00 | 37 | 1006.2 |
| 20260509210514 | 76 | 259 | 14.0 | 19.0 | 0.00 | 0.00 | 0.00 | 39 | 1006.3 |
| 20260509210023 | 75 | 259 | 11.0 | 21.0 | 0.00 | 0.00 | 0.00 | 39 | 1006.4 |
| 20260509205504 | 75 | 271 | 13.0 | 21.0 | 0.00 | 0.00 | 0.00 | 38 | 1006.4 |
| 20260509204508 | 75 | 276 | 9.0 | 18.0 | 0.00 | 0.00 | 0.00 | 40 | 1006.5 |
| 20260509204004 | 75 | 310 | 12.0 | 18.0 | 0.00 | 0.00 | 0.00 | 39 | 1006.5 |
| 20260509203503 | 75 | 290 | 13.0 | 18.0 | 0.00 | 0.00 | 0.00 | 37 | 1006.4 |
| 20260509202503 | 75 | 287 | 16.0 | 19.0 | 0.00 | 0.00 | 0.00 | 36 | 1006.4 |
| 20260509202006 | 75 | 285 | 12.0 | 21.0 | 0.00 | 0.00 | 0.00 | 37 | 1006.4 |
| 20260509201518 | 76 | 275 | 14.0 | 21.0 | 0.00 | 0.00 | 0.00 | 36 | 1006.4 |
| 20260509201007 | 75 | 316 | 3.0 | 21.0 | 0.00 | 0.00 | 0.00 | 40 | 1006.4 |
| 20260509200509 | 75 | 262 | 11.0 | 21.0 | 0.00 | 0.00 | 0.00 | 37 | 1006.4 |
| 20260509200024 | 75 | 281 | 12.0 | 21.0 | 0.00 | 0.00 | 0.00 | 42 | 1006.4 |
| 20260509195513 | 74 | 316 | 11.0 | 21.0 | 0.00 | 0.00 | 0.00 | 41 | 1006.5 |
| 20260509195008 | 74 | 266 | 12.0 | 23.0 | 0.00 | 0.00 | 0.00 | 42 | 1006.4 |
| 20260509194526 | 74 | 279 | 17.0 | 23.0 | 0.00 | 0.00 | 0.00 | 41 | 1006.6 |
| 20260509193503 | 74 | 281 | 7.0 | 21.0 | 0.00 | 0.00 | 0.00 | 39 | 1006.6 |
| 20260509193010 | 74 | 278 | 14.0 | 21.0 | 0.00 | 0.00 | 0.00 | 42 | 1006.6 |
| 20260509192507 | 74 | 285 | 14.0 | 26.0 | 0.00 | 0.00 | 0.00 | 42 | 1006.6 |
| 20260509192009 | 74 | 281 | 16.0 | 26.0 | 0.00 | 0.00 | 0.00 | 40 | 1006.6 |
| 20260509191518 | 74 | 307 | 10.0 | 25.0 | 0.00 | 0.00 | 0.00 | 44 | 1006.6 |
| 20260509191006 | 74 | 283 | 14.0 | 25.0 | 0.00 | 0.00 | 0.00 | 42 | 1006.6 |
| 20260509190507 | 74 | 276 | 11.0 | 25.0 | 0.00 | 0.00 | 0.00 | 42 | 1006.6 |
| 20260509185507 | 73 | 274 | 15.0 | 22.0 | 0.00 | 0.00 | 0.00 | 50 | 1006.5 |
| 20260509185014 | 73 | 280 | 16.0 | 24.0 | 0.00 | 0.00 | 0.00 | 48 | 1006.5 |
| 20260509184531 | 74 | 272 | 18.0 | 24.0 | 0.00 | 0.00 | 0.00 | 49 | 1006.3 |
| 20260509184008 | 73 | 283 | 10.0 | 25.0 | 0.00 | 0.00 | 0.00 | 47 | 1006.3 |
| 20260509183511 | 73 | 281 | 17.0 | 25.0 | 0.00 | 0.00 | 0.00 | 47 | 1006.2 |
| 20260509183026 | 73 | 233 | 15.0 | 22.0 | 0.00 | 0.00 | 0.00 | 54 | 1006.2 |
| 20260509182504 | 73 | 276 | 15.0 | 24.0 | 0.00 | 0.00 | 0.00 | 46 | 1006.2 |
| 20260509182010 | 72 | 282 | 15.0 | 24.0 | 0.00 | 0.00 | 0.00 | 52 | 1006.1 |
| 20260509181007 | 72 | 269 | 16.0 | 23.0 | 0.00 | 0.00 | 0.00 | 52 | 1006.2 |
| 20260509180508 | 72 | 249 | 14.0 | 23.0 | 0.00 | 0.00 | 0.00 | 51 | 1006.2 |
| 20260509175508 | 72 | 257 | 16.0 | 21.0 | 0.00 | 0.00 | 0.00 | 53 | 1006.2 |
| 20260509175008 | 71 | 250 | 16.0 | 21.0 | 0.00 | 0.00 | 0.00 | 56 | 1006.2 |
| 20260509174008 | 71 | 253 | 15.0 | 20.0 | 0.00 | 0.03 | 0.00 | 57 | 1006.1 |
| 20260509173509 | 70 | 250 | 12.0 | 22.0 | 0.00 | 0.06 | 0.00 | 60 | 1006.1 |
| 20260509173024 | 70 | 267 | 17.0 | 22.0 | 0.00 | 0.07 | 0.00 | 58 | 1005.9 |
| 20260509172512 | 70 | 234 | 14.0 | 22.0 | 0.00 | 0.08 | 0.00 | 61 | 1005.9 |
| 20260509172013 | 70 | 253 | 14.0 | 21.0 | 0.00 | 0.08 | 0.00 | 61 | 1006.0 |
| 20260509171003 | 69 | 257 | 15.0 | 22.0 | 0.00 | 0.09 | 0.00 | 63 | 1006.0 |
| 20260509170504 | 69 | 268 | 15.0 | 22.0 | 0.00 | 0.09 | 0.00 | 63 | 1006.1 |
| 20260509165508 | 68 | 262 | 18.0 | 23.0 | 0.00 | 0.10 | 0.00 | 67 | 1006.2 |
| 20260509165005 | 68 | 262 | 16.0 | 23.0 | 0.00 | 0.10 | 0.00 | 67 | 1006.1 |
| 20260509164006 | 67 | 267 | 17.0 | 22.0 | 0.00 | 0.10 | 0.00 | 68 | 1006.0 |
| 20260509163513 | 67 | 259 | 17.0 | 22.0 | 0.00 | 0.10 | 0.00 | 69 | 1006.1 |
| 20260509162008 | 66 | 261 | 16.0 | 23.0 | 0.00 | 0.10 | 0.00 | 73 | 1005.9 |
| 20260509161524 | 66 | 252 | 15.0 | 23.0 | 0.00 | 0.10 | 0.00 | 73 | 1005.9 |
| 20260509161014 | 66 | 274 | 16.0 | 21.0 | 0.00 | 0.10 | 0.00 | 74 | 1005.8 |
| 20260509160510 | 66 | 255 | 17.0 | 21.0 | 0.00 | 0.10 | 0.00 | 75 | 1005.8 |
| 20260509160012 | 65 | 248 | 13.0 | 22.0 | 0.00 | 0.10 | 0.00 | 76 | 1005.9 |
| 20260509155504 | 65 | 250 | 18.0 | 22.0 | 0.00 | 0.10 | 0.00 | 77 | 1006.0 |
| 20260509155006 | 65 | 250 | 15.0 | 23.0 | 0.00 | 0.10 | 0.00 | 77 | 1005.9 |
| 20260509154522 | 65 | 253 | 15.0 | 23.0 | 0.00 | 0.10 | 0.00 | 76 | 1005.9 |
| 20260509154009 | 64 | 272 | 13.0 | 21.0 | 0.00 | 0.10 | 0.00 | 82 | 1006.0 |
| 20260509153506 | 64 | 255 | 15.0 | 21.0 | 0.00 | 0.10 | 0.00 | 79 | 1006.1 |
| 20260509153023 | 64 | 269 | 15.0 | 20.0 | 0.00 | 0.10 | 0.00 | 80 | 1006.0 |
| 20260509152512 | 63 | 248 | 16.0 | 20.0 | 0.00 | 0.10 | 0.00 | 79 | 1005.8 |
| 20260509152008 | 63 | 254 | 16.0 | 20.0 | 0.00 | 0.10 | 0.00 | 79 | 1005.7 |
| 20260509151006 | 63 | 243 | 13.0 | 17.0 | 0.00 | 0.10 | 0.00 | 83 | 1005.8 |
| 20260509150509 | 62 | 234 | 13.0 | 16.0 | 0.00 | 0.10 | 0.00 | 81 | 1006.0 |
| 20260509150026 | 61 | 267 | 13.0 | 19.0 | 0.00 | 0.10 | 0.00 | 82 | 1006.0 |
| 20260509145510 | 61 | 250 | 15.0 | 19.0 | 0.00 | 0.10 | 0.00 | 82 | 1006.2 |
| 20260509145011 | 61 | 256 | 13.0 | 20.0 | 0.00 | 0.10 | 0.00 | 86 | 1006.4 |
| 20260509144519 | 60 | 249 | 15.0 | 20.0 | 0.00 | 0.10 | 0.00 | 84 | 1006.4 |
| 20260509144003 | 60 | 248 | 14.0 | 18.0 | 0.00 | 0.10 | 0.00 | 86 | 1006.3 |
| 20260509143508 | 60 | 231 | 14.0 | 20.0 | 0.00 | 0.10 | 0.00 | 86 | 1006.4 |
| 20260509143006 | 59 | 245 | 15.0 | 22.0 | 0.00 | 0.10 | 0.00 | 87 | 1006.4 |
| 20260509142503 | 59 | 245 | 14.0 | 22.0 | 0.00 | 0.10 | 0.00 | 89 | 1006.3 |
| 20260509142001 | 59 | 232 | 15.0 | 21.0 | 0.00 | 0.10 | 0.00 | 90 | 1006.2 |
| 20260509141508 | 58 | 240 | 14.0 | 20.0 | 0.00 | 0.10 | 0.00 | 90 | 1006.1 |
| 20260509141005 | 58 | 237 | 16.0 | 20.0 | 0.00 | 0.10 | 0.00 | 90 | 1006.0 |
| 20260509140503 | 58 | 247 | 17.0 | 20.0 | 0.00 | 0.10 | 0.00 | 91 | 1005.9 |
| 20260509140009 | 57 | 257 | 15.0 | 18.0 | 0.00 | 0.10 | 0.00 | 93 | 1006.0 |
| 20260509135507 | 57 | 255 | 16.0 | 18.0 | 0.00 | 0.10 | 0.00 | 93 | 1005.9 |
| 20260509135004 | 56 | 253 | 13.0 | 17.0 | 0.00 | 0.10 | 0.00 | 94 | 1006.0 |
| 20260509134510 | 56 | 250 | 13.0 | 20.0 | 0.00 | 0.10 | 0.00 | 95 | 1005.9 |
| 20260509134004 | 55 | 257 | 16.0 | 20.0 | 0.00 | 0.10 | 0.00 | 95 | 1005.9 |
| 20260509133512 | 55 | 241 | 16.0 | 20.0 | 0.00 | 0.10 | 0.00 | 95 | 1006.0 |
| 20260509133017 | 55 | 241 | 16.0 | 20.0 | 0.00 | 0.10 | 0.00 | 96 | 1005.9 |
| 20260509132509 | 54 | 234 | 15.0 | 19.0 | 0.00 | 0.10 | 0.00 | 96 | 1006.0 |
| 20260509132007 | 54 | 245 | 17.0 | 19.0 | 0.00 | 0.10 | 0.00 | 97 | 1005.9 |
| 20260509131504 | 54 | 226 | 14.0 | 19.0 | 0.00 | 0.10 | 0.00 | 97 | 1006.0 |
| 20260509131002 | 54 | 250 | 14.0 | 19.0 | 0.00 | 0.10 | 0.00 | 98 | 1005.9 |
| 20260509130504 | 53 | 238 | 15.0 | 18.0 | 0.00 | 0.10 | 0.00 | 98 | 1005.9 |
| 20260509130006 | 53 | 248 | 14.0 | 18.0 | 0.00 | 0.10 | 0.00 | 98 | 1006.0 |
| 20260509125504 | 52 | 247 | 14.0 | 19.0 | 0.00 | 0.10 | 0.00 | 98 | 1006.0 |
| 20260509125007 | 52 | 238 | 15.0 | 19.0 | 0.00 | 0.10 | 0.00 | 98 | 1005.8 |
| 20260509124512 | 52 | 236 | 15.0 | 19.0 | 0.00 | 0.10 | 0.00 | 98 | 1005.8 |
| 20260509124004 | 52 | 240 | 15.0 | 19.0 | 0.00 | 0.10 | 0.00 | 98 | 1005.8 |
| 20260509123504 | 52 | 229 | 15.0 | 19.0 | 0.00 | 0.10 | 0.00 | 98 | 1005.8 |
| 20260509123016 | 52 | 230 | 15.0 | 18.0 | 0.00 | 0.10 | 0.00 | 98 | 1005.8 |
| 20260509122505 | 52 | 248 | 14.0 | 17.0 | 0.00 | 0.10 | 0.00 | 98 | 1005.7 |
| 20260509122004 | 52 | 232 | 14.0 | 16.0 | 0.00 | 0.10 | 0.00 | 98 | 1005.7 |
| 20260509121518 | 52 | 241 | 13.0 | 16.0 | 0.00 | 0.10 | 0.00 | 98 | 1005.7 |
| 20260509121011 | 52 | 222 | 12.0 | 15.0 | 0.00 | 0.10 | 0.00 | 98 | 1005.7 |
| 20260509120507 | 52 | 235 | 12.0 | 15.0 | 0.00 | 0.10 | 0.00 | 98 | 1005.7 |
| 20260509120004 | 52 | 236 | 12.0 | 15.0 | 0.00 | 0.10 | 0.00 | 98 | 1005.7 |
| 20260509115504 | 52 | 239 | 12.0 | 15.0 | 0.00 | 0.10 | 0.00 | 98 | 1005.7 |
| 20260509115004 | 52 | 236 | 11.0 | 15.0 | 0.00 | 0.10 | 0.00 | 98 | 1005.7 |
| 20260509114508 | 52 | 225 | 12.0 | 14.0 | 0.00 | 0.10 | 0.00 | 98 | 1005.7 |
| 20260509114004 | 52 | 226 | 11.0 | 17.0 | 0.00 | 0.10 | 0.00 | 98 | 1005.7 |
| 20260509113504 | 53 | 228 | 12.0 | 17.0 | 0.00 | 0.10 | 0.00 | 98 | 1005.6 |
| 20260509113012 | 53 | 248 | 12.0 | 16.0 | 0.00 | 0.10 | 0.00 | 98 | 1005.6 |
| 20260509112503 | 53 | 244 | 11.0 | 17.0 | 0.00 | 0.10 | 0.00 | 98 | 1005.6 |
| 20260509112004 | 53 | 231 | 13.0 | 17.0 | 0.00 | 0.10 | 0.00 | 98 | 1005.6 |
| 20260509111520 | 53 | 248 | 14.0 | 17.0 | 0.00 | 0.10 | 0.00 | 98 | 1005.5 |
| 20260509111006 | 53 | 233 | 12.0 | 16.0 | 0.00 | 0.10 | 0.00 | 98 | 1005.7 |
| 20260509110504 | 53 | 244 | 11.0 | 14.0 | 0.00 | 0.10 | 0.00 | 98 | 1005.7 |
| 20260509110024 | 53 | 242 | 10.0 | 14.0 | 0.00 | 0.10 | 0.00 | 98 | 1005.7 |
| 20260509105508 | 53 | 234 | 11.0 | 14.0 | 0.00 | 0.10 | 0.00 | 98 | 1005.7 |
| 20260509105009 | 53 | 239 | 10.0 | 14.0 | 0.00 | 0.10 | 0.00 | 98 | 1005.8 |
| 20260509104505 | 53 | 248 | 11.0 | 14.0 | 0.00 | 0.10 | 0.00 | 98 | 1005.8 |
| 20260509104002 | 53 | 233 | 11.0 | 13.0 | 0.00 | 0.10 | 0.00 | 98 | 1005.9 |
| 20260509103502 | 53 | 251 | 10.0 | 13.0 | 0.00 | 0.10 | 0.00 | 98 | 1005.9 |
| 20260509103016 | 53 | 238 | 10.0 | 13.0 | 0.00 | 0.10 | 0.00 | 98 | 1006.0 |
| 20260509102505 | 53 | 254 | 8.0 | 12.0 | 0.00 | 0.10 | 0.00 | 98 | 1006.0 |
| 20260509102004 | 53 | 258 | 9.0 | 11.0 | 0.00 | 0.10 | 0.00 | 98 | 1005.9 |
| 20260509101516 | 53 | 248 | 8.0 | 12.0 | 0.00 | 0.10 | 0.00 | 98 | 1005.8 |
| 20260509101004 | 53 | 242 | 9.0 | 12.0 | 0.00 | 0.10 | 0.00 | 98 | 1005.8 |
| 20260509100506 | 53 | 243 | 8.0 | 12.0 | 0.00 | 0.10 | 0.00 | 98 | 1005.8 |
| 20260509100022 | 53 | 239 | 7.0 | 12.0 | 0.00 | 0.10 | 0.00 | 98 | 1005.9 |
| 20260509095507 | 53 | 231 | 9.0 | 11.0 | 0.00 | 0.10 | 0.00 | 98 | 1005.9 |
| 20260509095010 | 53 | 246 | 8.0 | 11.0 | 0.00 | 0.10 | 0.00 | 98 | 1005.9 |
| 20260509094524 | 53 | 239 | 8.0 | 11.0 | 0.00 | 0.10 | 0.00 | 98 | 1006.0 |
| 20260509094009 | 53 | 244 | 8.0 | 10.0 | 0.00 | 0.10 | 0.00 | 98 | 1006.0 |
| 20260509093508 | 52 | 245 | 7.0 | 11.0 | 0.00 | 0.10 | 0.00 | 98 | 1006.0 |
| 20260509093006 | 52 | 236 | 8.0 | 11.0 | 0.00 | 0.10 | 0.00 | 98 | 1006.1 |
| 20260509092507 | 52 | 239 | 8.0 | 11.0 | 0.00 | 0.10 | 0.00 | 97 | 1006.0 |
| 20260509092003 | 52 | 234 | 9.0 | 11.0 | 0.00 | 0.10 | 0.00 | 97 | 1005.9 |
| 20260509091512 | 52 | 243 | 8.0 | 12.0 | 0.00 | 0.10 | 0.00 | 97 | 1006.0 |
| 20260509091003 | 52 | 244 | 8.0 | 12.0 | 0.00 | 0.10 | 0.00 | 97 | 1005.9 |
| 20260509090507 | 52 | 249 | 9.0 | 12.0 | 0.00 | 0.10 | 0.00 | 97 | 1005.9 |
| 20260509090018 | 52 | 235 | 9.0 | 12.0 | 0.00 | 0.10 | 0.00 | 97 | 1005.9 |
| 20260509085503 | 52 | 238 | 9.0 | 12.0 | 0.00 | 0.10 | 0.00 | 97 | 1006.0 |
| 20260509085003 | 52 | 234 | 9.0 | 12.0 | 0.00 | 0.10 | 0.00 | 97 | 1006.1 |
| 20260509084533 | 52 | 226 | 6.0 | 8.0 | 0.00 | 0.10 | 0.00 | 97 | 1006.2 |
| 20260509084011 | 51 | 242 | 6.0 | 8.0 | 0.00 | 0.10 | 0.00 | 97 | 1006.1 |
| 20260509083507 | 51 | 236 | 6.0 | 9.0 | 0.00 | 0.10 | 0.00 | 97 | 1006.1 |
| 20260509083033 | 51 | 226 | 6.0 | 10.0 | 0.00 | 0.10 | 0.00 | 97 | 1006.1 |
| 20260509082511 | 52 | 227 | 6.0 | 10.0 | 0.00 | 0.10 | 0.00 | 97 | 1006.1 |
| 20260509082010 | 52 | 232 | 7.0 | 10.0 | 0.00 | 0.10 | 0.00 | 97 | 1006.1 |
| 20260509081528 | 52 | 230 | 6.0 | 10.0 | 0.00 | 0.10 | 0.00 | 97 | 1006.2 |
| 20260509081004 | 52 | 226 | 7.0 | 10.0 | 0.00 | 0.10 | 0.00 | 97 | 1006.2 |
| 20260509080503 | 52 | 236 | 7.0 | 10.0 | 0.00 | 0.10 | 0.00 | 97 | 1006.3 |
| 20260509080012 | 52 | 223 | 7.0 | 10.0 | 0.00 | 0.10 | 0.00 | 97 | 1006.2 |
| 20260509075504 | 52 | 223 | 7.0 | 10.0 | 0.00 | 0.10 | 0.00 | 97 | 1006.2 |
| 20260509075004 | 52 | 222 | 8.0 | 11.0 | 0.00 | 0.10 | 0.00 | 97 | 1006.2 |
| 20260509074516 | 52 | 227 | 8.0 | 11.0 | 0.00 | 0.10 | 0.00 | 97 | 1006.2 |
| 20260509074004 | 51 | 233 | 9.0 | 12.0 | 0.00 | 0.10 | 0.00 | 97 | 1006.2 |
| 20260509073507 | 51 | 223 | 8.0 | 12.0 | 0.00 | 0.10 | 0.00 | 97 | 1006.0 |
| 20260509073023 | 51 | 226 | 8.0 | 11.0 | 0.00 | 0.10 | 0.00 | 96 | 1006.2 |
| 20260509072508 | 51 | 231 | 9.0 | 12.0 | 0.00 | 0.10 | 0.00 | 96 | 1006.2 |
| 20260509072010 | 51 | 228 | 9.0 | 12.0 | 0.00 | 0.10 | 0.00 | 96 | 1006.2 |
| 20260509071522 | 51 | 207 | 9.0 | 12.0 | 0.00 | 0.10 | 0.00 | 96 | 1006.1 |
| 20260509071010 | 51 | 208 | 9.0 | 12.0 | 0.00 | 0.10 | 0.00 | 96 | 1006.0 |
| 20260509070026 | 51 | 212 | 9.0 | 12.0 | 0.00 | 0.10 | 0.00 | 95 | 1006.1 |
| 20260509065505 | 51 | 206 | 9.0 | 12.0 | 0.00 | 0.10 | 0.00 | 95 | 1006.2 |
| 20260509065003 | 51 | 210 | 8.0 | 12.0 | 0.00 | 0.10 | 0.00 | 95 | 1006.2 |
| 20260509064521 | 52 | 203 | 8.0 | 11.0 | 0.00 | 0.10 | 0.00 | 95 | 1006.4 |
| 20260509064006 | 51 | 224 | 8.0 | 10.0 | 0.00 | 0.10 | 0.00 | 95 | 1006.4 |
| 20260509063508 | 52 | 219 | 5.0 | 8.0 | 0.00 | 0.10 | 0.00 | 95 | 1006.4 |
| 20260509063017 | 52 | 242 | 5.0 | 7.0 | 0.00 | 0.10 | 0.00 | 95 | 1006.5 |
| 20260509062509 | 52 | 250 | 6.0 | 7.0 | 0.00 | 0.10 | 0.00 | 95 | 1006.5 |
| 20260509062009 | 52 | 250 | 5.0 | 7.0 | 0.00 | 0.10 | 0.00 | 95 | 1006.5 |
| 20260509061524 | 52 | 252 | 6.0 | 7.0 | 0.00 | 0.10 | 0.00 | 94 | 1006.4 |
| 20260509061007 | 52 | 245 | 6.0 | 7.0 | 0.00 | 0.10 | 0.00 | 94 | 1006.4 |
| 20260509060508 | 52 | 250 | 6.0 | 8.0 | 0.00 | 0.10 | 0.00 | 95 | 1006.5 |
| 20260509060025 | 52 | 248 | 6.0 | 9.0 | 0.00 | 0.10 | 0.00 | 94 | 1006.5 |
| 20260509055510 | 52 | 248 | 6.0 | 9.0 | 0.00 | 0.10 | 0.00 | 94 | 1006.6 |
| 20260509055008 | 52 | 248 | 6.0 | 8.0 | 0.00 | 0.10 | 0.00 | 94 | 1006.7 |
| 20260509054526 | 52 | 245 | 6.0 | 8.0 | 0.00 | 0.10 | 0.00 | 94 | 1006.7 |
| 20260509054005 | 52 | 240 | 5.0 | 8.0 | 0.00 | 0.10 | 0.00 | 93 | 1006.8 |
| 20260509053507 | 52 | 255 | 6.0 | 8.0 | 0.00 | 0.10 | 0.00 | 93 | 1006.9 |
| 20260509053016 | 53 | 248 | 7.0 | 9.0 | 0.00 | 0.10 | 0.00 | 93 | 1006.8 |
| 20260509052505 | 53 | 254 | 7.0 | 9.0 | 0.00 | 0.10 | 0.00 | 94 | 1006.9 |
| 20260509052008 | 52 | 240 | 7.0 | 9.0 | 0.00 | 0.10 | 0.00 | 94 | 1006.8 |
| 20260509051519 | 52 | 256 | 7.0 | 8.0 | 0.00 | 0.10 | 0.00 | 93 | 1006.9 |
| 20260509051007 | 52 | 252 | 6.0 | 7.0 | 0.00 | 0.10 | 0.00 | 93 | 1006.9 |
| 20260509050509 | 53 | 251 | 6.0 | 8.0 | 0.00 | 0.10 | 0.00 | 93 | 1007.0 |
| 20260509050035 | 53 | 255 | 6.0 | 8.0 | 0.00 | 0.10 | 0.00 | 93 | 1007.0 |
| 20260509045508 | 53 | 250 | 6.0 | 8.0 | 0.00 | 0.10 | 0.10 | 93 | 1007.0 |
| 20260509045011 | 53 | 243 | 6.0 | 8.0 | 0.00 | 0.10 | 0.10 | 93 | 1007.0 |
| 20260509044527 | 53 | 240 | 6.0 | 7.0 | 0.00 | 0.10 | 0.10 | 92 | 1007.1 |
| 20260509044012 | 53 | 272 | 5.0 | 8.0 | 0.00 | 0.10 | 0.10 | 92 | 1007.1 |
| 20260509043507 | 53 | 245 | 6.0 | 8.0 | 0.00 | 0.10 | 0.10 | 92 | 1007.0 |
| 20260509043032 | 53 | 257 | 6.0 | 9.0 | 0.00 | 0.10 | 0.10 | 92 | 1007.0 |
| 20260509042004 | 53 | 238 | 7.0 | 11.0 | 0.00 | 0.10 | 0.10 | 92 | 1006.9 |
| 20260509041004 | 53 | 221 | 7.0 | 10.0 | 0.00 | 0.11 | 0.10 | 93 | 1007.0 |
| 20260509040503 | 53 | 231 | 6.0 | 10.0 | 0.00 | 0.12 | 0.10 | 92 | 1007.0 |
| 20260509040010 | 53 | 239 | 7.0 | 8.0 | 0.00 | 0.12 | 0.10 | 92 | 1007.2 |
| 20260509035504 | 53 | 233 | 6.0 | 10.0 | 0.00 | 0.12 | 0.10 | 92 | 1007.3 |
| 20260509034510 | 54 | 225 | 7.0 | 10.0 | 0.00 | 0.12 | 0.10 | 92 | 1007.5 |
| 20260509033504 | 54 | 244 | 6.0 | 10.0 | 0.00 | 0.12 | 0.10 | 92 | 1007.6 |
| 20260509033007 | 54 | 227 | 7.0 | 10.0 | 0.00 | 0.12 | 0.10 | 92 | 1007.6 |
| 20260509032005 | 54 | 249 | 7.0 | 10.0 | 0.00 | 0.12 | 0.10 | 92 | 1007.6 |
| 20260509031004 | 54 | 245 | 7.0 | 10.0 | 0.00 | 0.12 | 0.10 | 92 | 1007.6 |
| 20260509030504 | 54 | 247 | 7.0 | 10.0 | 0.00 | 0.12 | 0.10 | 92 | 1007.7 |
| 20260509030014 | 54 | 243 | 7.0 | 11.0 | 0.00 | 0.12 | 0.10 | 91 | 1007.7 |
| 20260509025503 | 54 | 240 | 7.0 | 11.0 | 0.00 | 0.12 | 0.10 | 91 | 1007.6 |
| 20260509025004 | 54 | 233 | 7.0 | 10.0 | 0.00 | 0.12 | 0.10 | 91 | 1007.6 |
| 20260509024511 | 54 | 243 | 8.0 | 11.0 | 0.00 | 0.12 | 0.10 | 91 | 1007.6 |
| 20260509024004 | 54 | 238 | 7.0 | 11.0 | 0.00 | 0.12 | 0.10 | 91 | 1007.6 |
| 20260509023506 | 54 | 221 | 6.0 | 9.0 | 0.00 | 0.12 | 0.10 | 91 | 1007.5 |
| 20260509023016 | 54 | 238 | 7.0 | 9.0 | 0.00 | 0.12 | 0.10 | 91 | 1007.5 |
| 20260509021510 | 54 | 237 | 7.0 | 10.0 | 0.00 | 0.12 | 0.10 | 90 | 1007.7 |
| 20260509021004 | 55 | 236 | 7.0 | 10.0 | 0.00 | 0.12 | 0.10 | 90 | 1007.6 |
| 20260509015504 | 55 | 240 | 6.0 | 9.0 | 0.00 | 0.12 | 0.10 | 90 | 1007.6 |
| 20260509015005 | 54 | 241 | 6.0 | 8.0 | 0.00 | 0.12 | 0.10 | 90 | 1007.5 |
| 20260509014510 | 54 | 239 | 5.0 | 7.0 | 0.00 | 0.12 | 0.10 | 90 | 1007.5 |
| 20260509014004 | 54 | 236 | 5.0 | 7.0 | 0.00 | 0.12 | 0.10 | 90 | 1007.5 |
| 20260509013504 | 54 | 249 | 4.0 | 6.0 | 0.00 | 0.12 | 0.10 | 90 | 1007.5 |
| 20260509013013 | 54 | 248 | 4.0 | 6.0 | 0.00 | 0.12 | 0.10 | 89 | 1007.5 |
| 20260509012503 | 55 | 256 | 4.0 | 6.0 | 0.00 | 0.12 | 0.10 | 89 | 1007.5 |
| 20260509012005 | 55 | 258 | 5.0 | 6.0 | 0.00 | 0.12 | 0.10 | 89 | 1007.4 |
| 20260509011508 | 55 | 250 | 5.0 | 6.0 | 0.00 | 0.12 | 0.10 | 88 | 1007.3 |
| 20260509010504 | 55 | 243 | 4.0 | 6.0 | 0.00 | 0.12 | 0.10 | 88 | 1007.2 |
| 20260509005504 | 56 | 254 | 5.0 | 8.0 | 0.00 | 0.12 | 0.10 | 87 | 1007.0 |
| 20260509005003 | 56 | 244 | 6.0 | 10.0 | 0.00 | 0.12 | 0.10 | 86 | 1007.0 |
| 20260509004524 | 56 | 240 | 7.0 | 10.0 | 0.00 | 0.12 | 0.10 | 86 | 1007.0 |
| 20260509004004 | 57 | 255 | 7.0 | 11.0 | 0.00 | 0.12 | 0.10 | 86 | 1007.0 |
| 20260509003504 | 57 | 249 | 8.0 | 11.0 | 0.00 | 0.12 | 0.10 | 86 | 1007.0 |
| 20260509003012 | 57 | 245 | 8.0 | 13.0 | 0.00 | 0.12 | 0.10 | 86 | 1007.0 |
| 20260509002507 | 57 | 250 | 9.0 | 13.0 | 0.00 | 0.12 | 0.10 | 86 | 1007.2 |
| 20260509002003 | 57 | 239 | 9.0 | 14.0 | 0.00 | 0.12 | 0.10 | 86 | 1007.2 |
| 20260509001512 | 57 | 243 | 10.0 | 16.0 | 0.00 | 0.12 | 0.10 | 85 | 1007.3 |
| 20260509001006 | 57 | 241 | 11.0 | 16.0 | 0.00 | 0.12 | 0.10 | 85 | 1007.2 |
| 20260509000503 | 58 | 236 | 12.0 | 16.0 | 0.00 | 0.12 | 0.10 | 85 | 1007.3 |
| 20260509000011 | 58 | 246 | 11.0 | 15.0 | 0.00 | 0.12 | 0.10 | 84 | 1007.3 |
| 20260508235503 | 58 | 248 | 12.0 | 15.0 | 0.00 | 0.12 | 0.10 | 84 | 1007.3 |
| 20260508234512 | 58 | 245 | 10.0 | 14.0 | 0.00 | 0.12 | 0.10 | 84 | 1007.5 |
| 20260508233506 | 59 | 241 | 11.0 | 15.0 | 0.00 | 0.12 | 0.10 | 84 | 1007.4 |
| 20260508232505 | 59 | 244 | 12.0 | 17.0 | 0.00 | 0.12 | 0.10 | 82 | 1007.6 |
| 20260508232008 | 59 | 225 | 14.0 | 17.0 | 0.00 | 0.12 | 0.10 | 80 | 1007.6 |
| 20260508231516 | 59 | 223 | 12.0 | 19.0 | 0.00 | 0.12 | 0.10 | 81 | 1007.6 |